Time,TemperatureF,DewpointF,PressureIn,WindDirection,WindDirectionDegrees,WindSpeedMPH,WindSpeedGustMPH,Humidity,HourlyPrecipIn,Conditions,Clouds,dailyrainin,SolarRadiationWatts/m^2,SoftwareType,DateUTC
2013-04-30 00:21:00,29.0,19.0,-100.00,SSW,192,3.0,7.0,65,0.00,,,0.12,0.000000,,2013-04-30 08:21:00,
2013-04-30 00:32:00,29.0,19.0,-100.00,SSW,192,3.0,7.0,65,0.00,,,0.12,0.000000,,2013-04-30 08:32:00,
2013-04-30 00:42:00,29.0,19.0,-100.00,SSW,192,3.0,7.0,65,0.00,,,0.12,0.000000,,2013-04-30 08:42:00,
2013-04-30 00:52:00,29.0,19.0,-100.00,SSW,192,3.0,7.0,65,0.00,,,0.12,0.000000,,2013-04-30 08:52:00,
2013-04-30 01:22:00,29.0,19.0,-100.00,SSW,204,2.0,6.0,65,0.00,,,0.12,0.000000,,2013-04-30 09:22:00,
2013-04-30 01:33:00,29.0,19.0,-100.00,SSW,204,2.0,6.0,65,0.00,,,0.12,0.000000,,2013-04-30 09:33:00,
2013-04-30 01:43:00,29.0,19.0,-100.00,SSW,204,2.0,6.0,65,0.00,,,0.12,0.000000,,2013-04-30 09:43:00,
2013-04-30 01:52:00,29.0,19.0,-100.00,SSW,204,2.0,6.0,65,0.00,,,0.12,0.000000,,2013-04-30 09:52:00,
2013-04-30 02:22:00,29.0,18.0,-100.00,SSW,192,2.0,6.0,64,0.00,,,0.12,0.000000,,2013-04-30 10:22:00,
2013-04-30 02:32:00,29.0,18.0,-100.00,SSW,192,2.0,6.0,64,0.00,,,0.12,0.000000,,2013-04-30 10:32:00,
2013-04-30 02:41:00,29.0,18.0,-100.00,SSW,192,2.0,6.0,64,0.00,,,0.12,0.000000,,2013-04-30 10:41:00,
2013-04-30 02:52:00,29.0,18.0,-100.00,SSW,192,2.0,6.0,64,0.00,,,0.12,0.000000,,2013-04-30 10:52:00,
2013-04-30 03:21:00,28.0,18.0,-100.00,South,178,1.0,4.0,66,0.00,,,0.12,0.000000,,2013-04-30 11:21:00,
2013-04-30 03:31:00,28.0,18.0,-100.00,South,178,1.0,4.0,66,0.00,,,0.12,0.000000,,2013-04-30 11:31:00,
2013-04-30 03:42:00,28.0,18.0,-100.00,South,178,1.0,4.0,66,0.00,,,0.12,0.000000,,2013-04-30 11:42:00,
2013-04-30 03:51:00,28.0,18.0,-100.00,South,178,1.0,4.0,66,0.00,,,0.12,0.000000,,2013-04-30 11:51:00,
2013-04-30 04:21:00,28.0,19.0,-100.00,West,260,1.0,4.0,68,0.00,,,0.12,0.000000,,2013-04-30 12:21:00,
2013-04-30 04:31:00,28.0,19.0,-100.00,West,260,1.0,4.0,68,0.00,,,0.12,0.000000,,2013-04-30 12:31:00,
2013-04-30 04:41:00,28.0,19.0,-100.00,West,260,1.0,4.0,68,0.00,,,0.12,0.000000,,2013-04-30 12:41:00,
2013-04-30 04:51:00,28.0,19.0,-100.00,West,260,1.0,4.0,68,0.00,,,0.12,0.000000,,2013-04-30 12:51:00,
2013-04-30 07:21:00,32.0,24.0,-100.00,East,94,0.0,3.0,73,-99.99,,,0.12,70.000000,,2013-04-30 15:21:00,
2013-04-30 07:32:00,32.0,24.0,-100.00,East,94,0.0,3.0,73,-99.99,,,0.12,70.000000,,2013-04-30 15:32:00,
2013-04-30 07:42:00,32.0,24.0,-100.00,East,94,0.0,3.0,73,-99.99,,,0.12,70.000000,,2013-04-30 15:42:00,
2013-04-30 07:52:00,32.0,24.0,-100.00,East,94,0.0,3.0,73,-99.99,,,0.12,70.000000,,2013-04-30 15:52:00,
2013-04-30 08:22:00,36.0,25.0,-100.00,NNE,12,2.0,6.0,65,0.00,,,0.12,218.000000,,2013-04-30 16:22:00,
2013-04-30 08:33:00,36.0,25.0,-100.00,NNE,12,2.0,6.0,65,0.00,,,0.12,218.000000,,2013-04-30 16:33:00,
2013-04-30 08:42:00,36.0,25.0,-100.00,NNE,12,2.0,6.0,65,0.00,,,0.12,218.000000,,2013-04-30 16:42:00,
2013-04-30 08:52:00,36.0,25.0,-100.00,NNE,12,2.0,6.0,65,0.00,,,0.12,218.000000,,2013-04-30 16:52:00,
2013-04-30 09:22:00,38.0,27.0,-100.00,NNW,340,4.0,7.0,64,0.00,,,0.12,428.000000,,2013-04-30 17:22:00,
2013-04-30 09:32:00,38.0,27.0,-100.00,NNW,340,4.0,7.0,64,0.00,,,0.12,428.000000,,2013-04-30 17:32:00,
2013-04-30 09:42:00,38.0,27.0,-100.00,NNW,340,4.0,7.0,64,0.00,,,0.12,428.000000,,2013-04-30 17:42:00,
2013-04-30 09:52:00,38.0,27.0,-100.00,NNW,340,4.0,7.0,64,0.00,,,0.12,428.000000,,2013-04-30 17:52:00,
2013-04-30 10:22:00,38.0,27.0,-100.00,NNW,342,5.0,9.0,65,0.00,,,0.12,524.000000,,2013-04-30 18:22:00,
2013-04-30 10:32:00,38.0,27.0,-100.00,NNW,342,5.0,9.0,65,0.00,,,0.12,524.000000,,2013-04-30 18:32:00,
2013-04-30 10:41:00,38.0,27.0,-100.00,NNW,342,5.0,9.0,65,0.00,,,0.12,524.000000,,2013-04-30 18:41:00,
2013-04-30 10:51:00,38.0,27.0,-100.00,NNW,342,5.0,9.0,65,0.00,,,0.12,524.000000,,2013-04-30 18:51:00,
2013-04-30 11:21:00,40.0,26.0,-100.00,NW,325,5.0,11.0,58,0.00,,,0.12,649.000000,,2013-04-30 19:21:00,
2013-04-30 11:32:00,40.0,26.0,-100.00,NW,325,5.0,11.0,58,0.00,,,0.12,649.000000,,2013-04-30 19:32:00,
2013-04-30 11:41:00,40.0,26.0,-100.00,NW,325,5.0,11.0,58,0.00,,,0.12,649.000000,,2013-04-30 19:41:00,
2013-04-30 11:52:00,40.0,26.0,-100.00,NW,325,5.0,11.0,58,0.00,,,0.12,649.000000,,2013-04-30 19:52:00,
2013-04-30 12:21:00,41.0,29.0,-100.00,NNW,343,6.0,12.0,63,0.00,,,-99.99,626.000000,,2013-04-30 20:21:00,
2013-04-30 12:32:00,41.0,29.0,-100.00,NNW,343,6.0,12.0,63,0.00,,,-99.99,626.000000,,2013-04-30 20:32:00,
2013-04-30 12:42:00,41.0,29.0,-100.00,NNW,343,6.0,12.0,63,0.00,,,-99.99,626.000000,,2013-04-30 20:42:00,
2013-04-30 12:52:00,41.0,29.0,-100.00,NNW,343,6.0,12.0,63,0.00,,,-99.99,626.000000,,2013-04-30 20:52:00,
2013-04-30 13:22:00,41.0,30.0,-100.00,North,3,8.0,14.0,65,0.00,,,0.01,626.000000,,2013-04-30 21:22:00,
2013-04-30 13:32:00,41.0,30.0,-100.00,North,3,8.0,14.0,65,0.00,,,0.01,626.000000,,2013-04-30 21:32:00,
2013-04-30 13:42:00,41.0,30.0,-100.00,North,3,8.0,14.0,65,0.00,,,0.01,626.000000,,2013-04-30 21:42:00,
2013-04-30 13:52:00,41.0,30.0,-100.00,North,3,8.0,14.0,65,0.00,,,0.01,626.000000,,2013-04-30 21:52:00,
2013-04-30 14:22:00,40.0,30.0,-100.00,North,349,7.0,13.0,66,0.00,,,0.00,441.000000,,2013-04-30 22:22:00,
2013-04-30 14:32:00,40.0,30.0,-100.00,North,349,7.0,13.0,66,0.00,,,0.00,441.000000,,2013-04-30 22:32:00,
2013-04-30 14:41:00,40.0,30.0,-100.00,North,349,7.0,13.0,66,0.00,,,0.00,441.000000,,2013-04-30 22:41:00,
2013-04-30 14:52:00,40.0,30.0,-100.00,North,349,7.0,13.0,66,0.00,,,0.00,441.000000,,2013-04-30 22:52:00,
2013-04-30 15:21:00,42.0,30.0,-100.00,North,349,9.0,14.0,63,0.00,,,0.00,601.000000,,2013-04-30 23:21:00,
2013-04-30 15:32:00,42.0,30.0,-100.00,North,349,9.0,14.0,63,0.00,,,0.00,601.000000,,2013-04-30 23:32:00,
2013-04-30 15:42:00,42.0,30.0,-100.00,North,349,9.0,14.0,63,0.00,,,0.00,601.000000,,2013-04-30 23:42:00,
2013-04-30 15:52:00,42.0,30.0,-100.00,North,349,9.0,14.0,63,0.00,,,0.00,601.000000,,2013-04-30 23:52:00,
2013-04-30 16:21:00,40.0,31.0,-100.00,North,353,11.0,16.0,70,0.00,,,0.00,421.000000,,2013-05-01 00:21:00,
2013-04-30 16:32:00,40.0,31.0,-100.00,North,353,11.0,16.0,70,0.00,,,0.00,421.000000,,2013-05-01 00:32:00,
2013-04-30 16:42:00,40.0,31.0,-100.00,North,353,11.0,16.0,70,0.00,,,0.00,421.000000,,2013-05-01 00:42:00,
2013-04-30 16:51:00,40.0,31.0,-100.00,North,353,11.0,16.0,70,0.00,,,0.00,421.000000,,2013-05-01 00:51:00,
2013-04-30 17:21:00,38.0,32.0,-100.00,North,3,8.0,15.0,80,0.00,,,-99.99,194.000000,,2013-05-01 01:21:00,
2013-04-30 17:31:00,38.0,32.0,-100.00,North,3,8.0,15.0,80,0.00,,,-99.99,194.000000,,2013-05-01 01:31:00,
2013-04-30 17:41:00,38.0,32.0,-100.00,North,3,8.0,15.0,80,0.00,,,-99.99,194.000000,,2013-05-01 01:41:00,
2013-04-30 17:52:00,38.0,32.0,-100.00,North,3,8.0,15.0,80,0.00,,,-99.99,194.000000,,2013-05-01 01:52:00,
2013-04-30 18:21:00,35.0,35.0,-100.00,NNW,327,7.0,16.0,100,0.00,,,0.00,77.000000,,2013-05-01 02:21:00,
2013-04-30 18:32:00,35.0,35.0,-100.00,NNW,327,7.0,16.0,100,0.00,,,0.00,77.000000,,2013-05-01 02:32:00,
2013-04-30 18:42:00,35.0,35.0,-100.00,NNW,327,7.0,16.0,100,0.00,,,0.00,77.000000,,2013-05-01 02:42:00,
2013-04-30 18:51:00,35.0,35.0,-100.00,NNW,327,7.0,16.0,100,0.00,,,0.00,77.000000,,2013-05-01 02:51:00,
2013-04-30 19:21:00,35.0,35.0,-100.00,WNW,302,4.0,14.0,100,0.00,,,0.00,70.000000,,2013-05-01 03:21:00,
2013-04-30 19:33:00,35.0,35.0,-100.00,WNW,302,4.0,14.0,100,0.00,,,0.00,70.000000,,2013-05-01 03:33:00,
2013-04-30 19:42:00,35.0,35.0,-100.00,WNW,302,4.0,14.0,100,0.00,,,0.00,70.000000,,2013-05-01 03:42:00,
2013-04-30 19:52:00,35.0,35.0,-100.00,WNW,302,4.0,14.0,100,0.00,,,0.00,70.000000,,2013-05-01 03:52:00,
2013-04-30 20:22:00,35.0,35.0,-100.00,NW,323,7.0,11.0,100,0.00,,,-99.99,20.000000,,2013-05-01 04:22:00,
2013-04-30 20:32:00,35.0,35.0,-100.00,NW,323,7.0,11.0,100,0.00,,,-99.99,20.000000,,2013-05-01 04:32:00,
2013-04-30 20:42:00,35.0,35.0,-100.00,NW,323,7.0,11.0,100,0.00,,,-99.99,20.000000,,2013-05-01 04:42:00,
2013-04-30 20:52:00,35.0,35.0,-100.00,NW,323,7.0,11.0,100,0.00,,,-99.99,20.000000,,2013-05-01 04:52:00,
2013-04-30 21:21:00,35.0,35.0,-100.00,NW,326,4.0,13.0,100,0.00,,,-99.99,2.000000,,2013-05-01 05:21:00,
2013-04-30 21:32:00,35.0,35.0,-100.00,NW,326,4.0,13.0,100,0.00,,,-99.99,2.000000,,2013-05-01 05:32:00,
2013-04-30 21:41:00,35.0,35.0,-100.00,NW,326,4.0,13.0,100,0.00,,,-99.99,2.000000,,2013-05-01 05:41:00,
2013-04-30 21:52:00,35.0,35.0,-100.00,NW,326,4.0,13.0,100,0.00,,,-99.99,2.000000,,2013-05-01 05:52:00,
2013-04-30 22:22:00,35.0,35.0,-100.00,NNW,331,7.0,14.0,100,0.00,,,0.00,0.000000,,2013-05-01 06:22:00,
2013-04-30 22:32:00,35.0,35.0,-100.00,NNW,331,7.0,14.0,100,0.00,,,0.00,0.000000,,2013-05-01 06:32:00,
2013-04-30 22:42:00,35.0,35.0,-100.00,NNW,331,7.0,14.0,100,0.00,,,0.00,0.000000,,2013-05-01 06:42:00,
2013-04-30 22:51:00,35.0,35.0,-100.00,NNW,331,7.0,14.0,100,0.00,,,0.00,0.000000,,2013-05-01 06:51:00,
2013-04-30 23:21:00,35.0,35.0,-100.00,NW,326,7.0,14.0,100,0.00,,,0.00,0.000000,,2013-05-01 07:21:00,
2013-04-30 23:32:00,35.0,35.0,-100.00,NW,326,7.0,14.0,100,0.00,,,0.00,0.000000,,2013-05-01 07:32:00,
2013-04-30 23:41:00,35.0,35.0,-100.00,NW,326,7.0,14.0,100,0.00,,,0.00,0.000000,,2013-05-01 07:41:00,
2013-04-30 23:52:00,35.0,35.0,-100.00,NW,326,7.0,14.0,100,0.00,,,0.00,0.000000,,2013-05-01 07:52:00,